User: anonymous
Location: Hancock Field Station
(44.9202°N, 120.4259°W)
Time: 20:55:13
(UTC-07:00)
Language:

Nadezhda 4 Rocket - Orbit

View from above orbital plane
View from above orbital plane
View from above satellite
View from above satellite

Ground track
Ground track

The orbit data is extracted from the following two-line orbital elements,

1 23180U 94041B   14231.89768891  .00000054  00000-0  38391-4 0  4991
2 23180 082.9498 339.1499 0028105 236.6708 262.9769 13.77843938 10748
Epoch (UTC): 19 August 2014 21:32:40
Eccentricity: 0.0028105
inclination: 82.9498°
perigee height: 951 km
apogee height: 992 km
right ascension of ascending node: 339.1499°
argument of perigee: 236.6708°
revolutions per day: 13.77843938
mean anomaly at epoch: 262.9769°
orbit number at epoch: 1074

The dashed part of the orbit path shows where the satellite is in the earth's shadow,  

DLR